Regional Weather Roundup
Issued by NWS

Home | Current Version | Previous Version | Graphics & Text | Print | Product List | Glossary Off
Versions: 1 2 3 4 5 6 7 8 9 10 11 12 13 14 15 16 17 18 19 20 21 22 23 24 25 26 27 28 29 30 31 32 33 34 35 36 37 38 39 40 41 42 43 44 45 46 47 48 49 50

000
ASUS43 KTOP 211608
RWRKS

WEATHER ROUNDUP FOR KANSAS
NATIONAL WEATHER SERVICE GOODLAND KS
1100 AM CDT SUN SEP 21 2014

NOTE:  "FAIR" INDICATES FEW OR NO CLOUDS BELOW 12,000 FEET WITH NO
SIGNIFICANT WEATHER AND/OR OBSTRUCTIONS TO VISIBILITY.

KSZ001>006-013>018-027>032-041>047-211700-
NORTHWEST KANSAS

CITY           SKY/WX    TMP DP  RH WIND       PRES   REMARKS
GOODLAND       PTSUNNY   65  43  44 NE5       30.39R
HAYS           SUNNY     70  46  43 NE9       30.31R
HILL CITY      MOSUNNY   71  42  35 NE8       30.32R
RUSSELL        SUNNY     72  48  42 NE8       30.28R
$$

KSZ061>065-074>080-084>089-211700-
SOUTHWEST KANSAS

CITY           SKY/WX    TMP DP  RH WIND       PRES   REMARKS
DODGE CITY     SUNNY     72  42  34 NE15G23   30.30R
ELKHART          N/A     71  47  42 E14         N/A
GARDEN CITY    SUNNY     71  40  32 E18G26    30.31S
GREAT BEND     MOSUNNY   70  52  52 NE9       30.29R
LIBERAL        SUNNY     73  45  35 E17G29    30.31R
PRATT          MOSUNNY   73  41  31 NE14G21   30.28R
$$

KSZ066>073-081>083-090>101-211700-
SOUTHEAST KANSAS

CITY           SKY/WX    TMP DP  RH WIND       PRES   REMARKS
CHANUTE        SUNNY     76  49  38 N12       30.19R
HUTCHINSON     MOSUNNY   73  55  53 NE8       30.25R
MEDICINE LODGE   N/A     80  42  25 NE15G24   30.23R
NEWTON         MOSUNNY   72  50  46 NE10G16   30.26R
PARSONS        SUNNY     76  51  41 NE7       30.20R
WICHITA INTL   PTSUNNY   78  47  33 NE20      30.22R
WICHITA JABRA  MOSUNNY   77  41  27 NE17G25   30.22R
WICHITA MCCONL MOSUNNY   77  45  31 N14       30.22R HAZE
WINFIELD       MOSUNNY   76  47  35 NE15      30.21R
$$

KSZ007>012-019>026-033>040-048>060-102>105-211700-
NORTHEAST KANSAS

CITY           SKY/WX    TMP DP  RH WIND       PRES   REMARKS
CONCORDIA      SUNNY     71  46  40 N12       30.26R
EMPORIA        SUNNY     73  51  46 N8        30.22R
LAWRENCE       SUNNY     72  53  51 N12G20    30.20R
MANHATTAN      SUNNY     73  48  41 N9        30.23R
MARYSVILLE     SUNNY     70  46  43 N13G18    30.24R
OLATHE IND     SUNNY     72  50  45 NW14      30.19R
OLATHE EXE     SUNNY     72  49  44 N13       30.18R
SALINA         SUNNY     72  55  55 N8        30.26R
TOPEKA BILLARD SUNNY     72  57  59 NW8       30.20S
TOPEKA FORBES  SUNNY     74  53  48 NW9       30.21R
$$


USA.gov is the U.S. government's official web portal to all federal, state and local government web resources and services.